[[{"header":{"parameterUnit":"m.s-1","parameterCategory":1,"la1":30.2991,"la2":30.254,"lo1":-89.0895,"lo2":-89.0444,"dy":0.0017,"dx":0.0017,"nx":28,"ny":28,"refTime":"2025-08-15T09:00:00:Z","depth":0,"parameterNumber":2,"parameterNumberName":"U-component_of_WINDS"},"data":[0,0,0,0,0,0,0,0,0,0,0,0,0,0,0,0,0,0,0,0,0,0,0,0,0,0,0,0,0,0,0,0,0,0,0,0,0,0,0,0,0,0,0,0,0,0,0,0,0,0,0,0,0,0,0,0,0,0,2.262,2.2621,0,2.2698,2.2699,2.27,2.2656,2.2654,2.2652,2.265,2.2735,2.2739,2.2743,0,0,0,0,0,0,0,0,0,0,0,0,0,2.2437,2.2441,2.262,2.2621,2.2622,2.2698,2.2699,2.27,2.2656,2.2654,2.2651,2.2649,2.2734,2.2739,2.2744,0,0,0,0,0,0,0,0,0,0,0,0,0,2.2516,2.2442,2.2619,2.2609,2.2609,2.2698,2.2699,2.27,2.2657,2.2654,2.265,2.2647,2.2732,2.2738,2.2745,2.285,0,0,2.2764,2.2767,0,0,0,0,0,0,0,0,2.2512,2.2523,2.2609,2.261,2.261,2.2664,2.2666,2.2751,2.2658,2.2639,2.265,2.2646,2.2714,2.2722,2.2744,2.2854,2.2858,2.2765,2.2769,2.2772,2.2773,0,0,0,0,0,0,0,2.2506,2.2519,2.2651,2.2611,2.2611,2.2602,2.2609,2.2682,2.2694,2.264,2.2637,2.2647,2.2714,2.2738,2.2746,2.2859,2.2765,2.277,2.2774,2.2777,2.306,2.3064,0,0,0,0,0,0,2.2501,2.2515,2.2648,2.2653,2.2552,2.2608,2.2616,2.265,2.2693,2.2697,2.265,2.2644,2.2729,2.2738,2.2749,2.2876,2.2772,2.2778,2.2781,2.3057,2.3061,2.3065,0,0,0,0,0,0,2.2497,2.2513,2.2645,2.2583,2.2599,2.2614,2.2652,2.2653,2.2677,2.27,2.2703,2.2672,2.2726,2.274,2.2825,2.2878,2.278,2.2786,2.3052,2.3058,2.3063,2.313,0,0,0,0,0,0,2.2492,2.2512,2.2551,2.2584,2.2603,2.2719,2.2656,2.2657,2.2688,2.2682,2.2722,2.2725,2.2725,2.2816,2.2831,2.2885,2.2791,2.3048,2.3055,2.3061,2.3124,2.3137,2.3149,0,0,0,0,0,2.2486,2.2568,2.2553,2.257,2.2652,2.2722,2.2733,2.2729,2.2692,2.2733,2.2747,2.2724,2.2869,2.2825,2.2842,2.2899,2.3045,2.3053,2.3061,2.3118,2.3135,2.3149,0,0,0,0,0,0,2.2542,2.2572,2.2556,2.2651,2.2684,2.2714,2.2765,2.2747,2.2793,2.2786,2.2781,2.279,2.288,2.2897,2.2847,2.3003,2.2951,2.2964,2.2989,2.3005,2.3018,2.3012,2.2797,0,0,0,0,0,2.2565,2.2618,2.2642,2.2724,2.2741,2.275,2.2781,2.2775,2.281,2.2824,2.2845,2.2881,2.2935,2.2971,2.3022,2.3125,2.3134,2.3173,2.3186,2.3196,2.3207,2.3265,2.3283,2.3092,2.3092,2.3092,0,0,2.2614,2.2637,2.2671,2.2736,2.2761,2.2817,2.2762,2.2825,2.2867,2.2834,2.2916,2.2933,2.2973,2.3068,2.3111,2.3086,2.3262,2.3207,2.3215,2.3221,2.3275,2.3293,2.3309,2.3098,2.3097,2.3096,0,0,2.2733,2.2755,2.2825,2.2851,2.2889,2.2895,2.2912,2.2945,2.2954,2.3036,2.3012,2.3064,2.3156,2.3186,2.3213,2.3343,2.3323,2.336,2.3428,2.3484,2.3499,2.3512,2.356,2.3576,2.337,2.337,2.3371,0,2.279,2.2872,2.2865,2.2929,2.2958,2.2929,2.3002,2.3028,2.3081,2.3103,2.3073,2.3189,2.3214,2.3316,2.3348,2.337,2.3391,2.3356,2.3497,2.351,2.3523,2.3568,2.3585,2.3375,2.3374,2.3374,2.3373,0,2.2941,2.2999,2.3052,2.3102,2.3138,2.3206,2.321,2.3248,2.3239,2.3248,2.3332,2.3361,2.3417,2.3441,2.3433,2.3543,2.3526,2.3497,2.3445,2.3545,2.3587,2.3605,2.3381,2.3379,2.3378,2.3377,0,0,2.3098,2.3143,2.3163,2.3186,2.3225,2.3271,2.3338,2.3392,2.3424,2.3462,2.3519,2.3598,2.3572,2.3602,2.3598,2.3647,2.3749,2.3612,2.3613,2.3638,2.3873,2.3895,2.3915,2.3736,2.3739,2.3742,2.387,0,2.322,2.3336,2.3331,2.344,2.3495,2.3468,2.3527,2.3558,2.3569,2.3618,2.363,2.3686,2.3646,2.3664,2.3711,2.3727,2.3797,2.3717,2.3791,2.3794,2.3783,2.3937,2.3961,2.408,2.3886,2.3889,2.3891,0,2.3378,2.342,2.3534,2.3566,2.3588,2.3641,2.369,2.3737,2.3772,2.3777,2.3811,2.3799,2.3869,2.3813,2.391,2.3857,2.3886,2.3899,2.3903,2.3911,2.3849,2.395,2.4118,2.4136,2.3917,2.3915,2.3913,0,2.3482,2.3567,2.3647,2.3667,2.3706,2.3744,2.3762,2.3794,2.3827,2.387,2.3892,2.3943,2.3972,2.4012,2.4015,2.3974,2.4113,2.4058,2.412,2.412,2.4152,2.415,2.4328,2.4169,2.4169,2.4169,2.4168,0,2.362,2.3691,2.3694,2.3743,2.3823,2.3817,2.3897,2.3911,2.394,2.3993,2.3973,2.4023,2.4023,2.4074,2.4077,2.4157,2.417,2.4177,2.4177,2.4179,2.4178,2.4199,2.4192,2.4173,2.4172,2.4171,2.417,0,2.3751,2.3755,2.384,2.387,2.3879,2.3937,2.3962,2.401,2.4018,2.4085,2.4101,2.4114,2.4174,2.418,2.4249,2.4251,2.4349,2.4339,2.4336,2.4335,2.4397,2.4392,2.4596,2.4623,2.4446,2.4447,2.4449,0,2.3838,2.3893,2.3928,2.3961,2.3981,2.4034,2.4067,2.4064,2.4099,2.4144,2.4187,2.4244,2.4289,2.4386,2.4403,2.4456,2.4449,2.4517,2.4457,2.4458,2.4451,2.4448,2.4454,2.4529,2.4531,2.4532,2.4534,0,2.3995,2.3994,2.4041,2.409,2.413,2.4168,2.4204,2.4233,2.4234,2.4275,2.4335,2.437,2.444,2.4498,2.455,2.4571,2.4553,2.4552,2.4569,2.4573,2.4569,2.4573,2.4369,2.4548,2.4546,2.4545,2.4545,2.4544,2.4107,2.4154,2.4186,2.424,2.4267,2.4301,2.4347,2.436,2.441,2.4466,2.4461,2.4528,2.4563,2.4631,2.4655,2.4708,2.4685,2.471,2.4717,2.4723,2.473,2.456,2.4717,2.4717,2.4716,2.4716,2.4716,0,2.4263,2.4282,2.4332,2.4382,2.4425,2.4402,2.4441,2.4479,2.4537,2.457,2.4615,2.4685,2.474,2.4761,2.4816,2.4854,2.4848,2.4869,2.4867,2.4872,2.4746,2.4726,2.4873,2.4873,2.4873,2.4873,2.4873,2.4873,2.4349,2.4428,2.4431,2.4523,2.4542,2.4606,2.463,2.4662,2.4689,2.4767,2.4812,2.4825,2.4854,2.491,2.4961,2.4965,2.4987,2.5012,2.5014,2.4896,2.4881,2.4865,2.4847,2.5016,2.5017,2.5135,2.5136,2.5136]},{"header":{"parameterUnit":"m.s-1","parameterCategory":1,"la1":30.2991,"la2":30.254,"lo1":-89.0895,"lo2":-89.0444,"dy":0.0017,"dx":0.0017,"nx":28,"ny":28,"refTime":"2025-08-15T09:00:00:Z","depth":0,"parameterNumber":3,"parameterNumberName":"V-component_of_WINDS"},"data":[0,0,0,0,0,0,0,0,0,0,0,0,0,0,0,0,0,0,0,0,0,0,0,0,0,0,0,0,0,0,0,0,0,0,0,0,0,0,0,0,0,0,0,0,0,0,0,0,0,0,0,0,0,0,0,0,0,0,2.07,2.0701,0,2.0743,2.0743,2.0744,2.0711,2.071,2.0708,2.0707,2.075,2.0753,2.0755,0,0,0,0,0,0,0,0,0,0,0,0,0,2.0587,2.059,2.07,2.0701,2.0701,2.0743,2.0743,2.0744,2.0712,2.071,2.0708,2.0706,2.0749,2.0752,2.0755,0,0,0,0,0,0,0,0,0,0,0,0,0,2.0634,2.059,2.07,2.069,2.069,2.0743,2.0743,2.0744,2.0712,2.071,2.0708,2.0706,2.0748,2.0752,2.0756,2.0821,0,0,2.0767,2.0769,0,0,0,0,0,0,0,0,2.0631,2.0638,2.0691,2.0691,2.0691,2.072,2.0719,2.077,2.0712,2.0703,2.0707,2.0705,2.0742,2.0746,2.0758,2.0823,2.0825,2.0767,2.077,2.0771,2.0772,0,0,0,0,0,0,0,2.0628,2.0636,2.0717,2.0692,2.0692,2.0682,2.0687,2.0729,2.0734,2.0704,2.0702,2.0707,2.0741,2.0755,2.0759,2.0825,2.0767,2.077,2.0773,2.0774,2.0938,2.094,0,0,0,0,0,0,2.0626,2.0633,2.0716,2.0718,2.0655,2.0686,2.0691,2.0712,2.0733,2.0735,2.0709,2.0706,2.075,2.0755,2.0761,2.0833,2.0771,2.0775,2.0777,2.0936,2.0938,2.0941,0,0,0,0,0,0,2.0624,2.0634,2.0714,2.0675,2.0685,2.069,2.0715,2.0714,2.0728,2.0737,2.0738,2.0722,2.0748,2.0755,2.0804,2.0834,2.0776,2.078,2.0933,2.0937,2.094,2.0982,0,0,0,0,0,0,2.0621,2.0633,2.0659,2.0676,2.0687,2.0759,2.0717,2.0717,2.0735,2.073,2.075,2.0751,2.0747,2.0799,2.0808,2.0838,2.0782,2.0931,2.0935,2.0939,2.0978,2.0986,2.0993,0,0,0,0,0,2.0617,2.0671,2.0661,2.0671,2.072,2.0761,2.0767,2.0761,2.0737,2.0762,2.0767,2.075,2.083,2.0804,2.0814,2.0846,2.0929,2.0934,2.0938,2.0974,2.0985,2.0993,0,0,0,0,0,0,2.0659,2.0673,2.0662,2.0724,2.0741,2.0755,2.0787,2.0773,2.0798,2.0793,2.0785,2.079,2.084,2.0849,2.082,2.0907,2.0875,2.0882,2.0899,2.0909,2.0917,2.0912,2.0786,0,0,0,0,0,2.0675,2.0708,2.0718,2.0771,2.078,2.0782,2.08,2.0793,2.0811,2.0819,2.0827,2.0845,2.0873,2.0892,2.0919,2.0979,2.098,2.1006,2.1013,2.102,2.1025,2.1052,2.1061,2.0956,2.0956,2.0956,0,0,2.071,2.0721,2.0743,2.078,2.0793,2.0824,2.0789,2.0825,2.0848,2.0824,2.0869,2.0876,2.0895,2.0948,2.0972,2.0957,2.1054,2.1026,2.1031,2.1033,2.1058,2.1067,2.1076,2.096,2.0959,2.0959,0,0,2.0787,2.0801,2.0844,2.0856,2.0875,2.0875,2.0885,2.09,2.0903,2.0949,2.093,2.0956,2.1007,2.1019,2.1032,2.1108,2.1092,2.1118,2.1157,2.1183,2.1191,2.1199,2.1221,2.123,2.1123,2.1123,2.1124,0,2.0827,2.0875,2.0868,2.0904,2.0918,2.0897,2.0938,2.0951,2.0978,2.0988,2.097,2.1029,2.1041,2.1093,2.1111,2.1124,2.1133,2.1114,2.1191,2.1198,2.1205,2.1226,2.1235,2.1126,2.1126,2.1125,2.1125,0,2.092,2.0953,2.0985,2.1009,2.1028,2.1067,2.1063,2.1083,2.1074,2.1075,2.1119,2.1131,2.1158,2.1171,2.1164,2.1221,2.121,2.1192,2.116,2.1217,2.1237,2.1246,2.113,2.1129,2.1128,2.1127,0,0,2.1027,2.1043,2.1054,2.1062,2.1079,2.1104,2.114,2.1165,2.1179,2.1198,2.1225,2.1266,2.1248,2.1262,2.1256,2.128,2.1333,2.1258,2.1258,2.1268,2.1391,2.1402,2.1412,2.1323,2.1325,2.1326,2.1388,0,2.1101,2.1163,2.1155,2.1214,2.1241,2.1219,2.125,2.1262,2.1263,2.1286,2.1287,2.1314,2.129,2.1298,2.132,2.1322,2.1357,2.1318,2.1345,2.1347,2.1338,2.1423,2.1436,2.1494,2.1396,2.1398,2.1399,0,2.1197,2.1216,2.1276,2.1283,2.1295,2.1323,2.1341,2.1364,2.1376,2.1375,2.1389,2.1377,2.141,2.1379,2.1422,2.1395,2.1406,2.1408,2.141,2.141,2.1374,2.1422,2.1513,2.152,2.1412,2.1411,2.141,0,2.1262,2.1303,2.1343,2.1351,2.1363,2.1381,2.1387,2.1397,2.1411,2.1427,2.1435,2.1456,2.1467,2.1483,2.1476,2.1454,2.1518,2.1487,2.1515,2.1515,2.1528,2.1527,2.1619,2.1541,2.1541,2.1541,2.1541,0,2.1345,2.1381,2.1372,2.1396,2.1435,2.1425,2.1463,2.1466,2.1474,2.1497,2.1481,2.1502,2.1493,2.1513,2.1509,2.1542,2.1548,2.1546,2.1543,2.1545,2.1545,2.155,2.1545,2.1543,2.1542,2.1542,2.1542,0,2.1424,2.142,2.146,2.1466,2.1468,2.1496,2.15,2.1521,2.152,2.1548,2.1554,2.1552,2.1574,2.1569,2.1595,2.1591,2.1632,2.1626,2.1627,2.1624,2.1651,2.1647,2.1747,2.1757,2.1676,2.1677,2.1678,0,2.1475,2.1502,2.1509,2.1522,2.1528,2.155,2.1563,2.1553,2.1567,2.158,2.1598,2.1619,2.1635,2.1671,2.1671,2.1689,2.1681,2.1715,2.1684,2.1683,2.1676,2.1673,2.1674,2.172,2.1721,2.1722,2.1723,0,2.1564,2.1559,2.1578,2.1594,2.1609,2.1622,2.1633,2.1645,2.1635,2.1651,2.1673,2.1685,2.1708,2.1728,2.1743,2.1747,2.1732,2.1732,2.1739,2.174,2.1737,2.1734,2.164,2.173,2.1729,2.1728,2.1728,2.1728,2.1627,2.1648,2.1654,2.1674,2.1681,2.1691,2.1709,2.1709,2.1726,2.1744,2.1737,2.1761,2.1768,2.1787,2.1793,2.181,2.1797,2.1808,2.181,2.1812,2.1813,2.1737,2.1813,2.1813,2.1813,2.1813,2.1813,0,2.1712,2.1714,2.1732,2.1746,2.1761,2.1745,2.1755,2.1768,2.1789,2.1797,2.1811,2.1834,2.1851,2.1851,2.1867,2.188,2.1873,2.1884,2.1881,2.1882,2.1826,2.1817,2.1889,2.1889,2.1889,2.1889,2.1889,2.1889,2.1757,2.1789,2.1784,2.1818,2.182,2.1842,2.1849,2.1857,2.1862,2.1887,2.1901,2.1901,2.1904,2.1919,2.1933,2.1932,2.1937,2.195,2.1947,2.1894,2.1886,2.1879,2.187,2.1952,2.1952,2.2,2.2001,2.2001]}]]